Date,TemperatureHighF,TemperatureAvgF,TemperatureLowF,DewpointHighF,DewpointAvgF,DewpointLowF,HumidityHigh,HumidityAvg,HumidityLow,PressureMaxIn,PressureMinIn,WindSpeedMaxMPH,WindSpeedAvgMPH,GustSpeedMaxMPH,PrecipitationSumIn
2014-1-1,0.5,-5.1,-12.3,-7.3,-12.7,-19.6,69,69,69,30.44,30.36,5,4,9,0.00
2014-1-2,0.0,-11.2,-22.7,-7.8,-18.6,-29.6,69,69,69,30.44,30.30,6,2,10,0.00
2014-1-3,24.6,6.3,-22.2,21.0,-1.7,-29.1,86,69,54,30.30,29.38,10,5,21,0.00
2014-1-4,30.4,14.4,-4.4,29.1,3.8,-16.8,95,63,54,30.21,29.35,18,8,32,0.00
2014-1-5,-4.4,-11.5,-21.5,-16.8,-23.5,-32.9,54,54,54,30.33,30.21,11,6,20,0.00
2014-1-6,-13.5,-19.3,-24.9,-25.5,-30.9,-36.1,54,54,54,30.24,30.09,14,8,25,0.00
2014-1-7,3.2,-9.9,-21.1,-9.7,-22.0,-32.6,54,54,54,30.21,30.06,8,3,14,0.00
2014-1-8,0.3,-10.6,-23.4,-12.4,-22.7,-34.8,54,54,54,30.42,30.21,6,2,10,0.00
2014-1-9,21.2,3.7,-23.8,12.6,-8.5,-35.1,81,56,49,30.36,29.88,10,4,17,0.00
2014-1-10,29.5,25.1,17.6,28.5,22.5,12.8,96,90,81,29.88,29.47,8,3,16,0.00
2014-1-11,33.1,27.5,17.6,29.0,23.8,14.7,98,86,71,29.65,29.47,12,5,18,0.00
2014-1-12,41.4,30.6,18.3,30.0,25.4,15.6,94,82,61,29.62,29.35,6,4,12,1.41
2014-1-13,33.4,27.1,19.4,28.4,17.3,8.3,86,67,54,29.65,29.47,11,5,19,0.00
2014-1-14,23.5,17.5,7.9,19.4,7.9,-5.3,90,67,51,30.09,29.53,12,7,21,0.00
2014-1-15,19.0,1.9,-7.2,13.0,-9.8,-19.5,77,58,54,30.09,29.32,10,5,18,0.00
2014-1-16,19.0,13.0,8.1,13.0,-1.9,-14.0,77,54,35,29.74,29.26,22,10,38,0.00
2014-1-17,12.9,7.8,-0.9,-3.1,-13.0,-15.9,48,38,35,29.97,29.74,8,7,14,0.00
2014-1-18,20.3,14.1,7.2,20.3,7.9,-8.4,100,79,48,29.88,29.59,10,5,19,0.00
2014-1-19,38.7,28.5,17.6,28.8,23.2,17.6,100,82,59,29.68,29.41,8,5,18,0.00
2014-1-20,29.1,11.1,-7.2,23.2,2.0,-16.8,79,66,61,30.36,29.65,12,7,27,0.00
2014-1-21,4.5,-6.3,-24.5,-5.7,-16.0,-33.3,62,62,62,30.39,29.94,6,2,11,0.00
2014-1-22,3.7,-0.0,-7.2,-6.4,-9.9,-16.8,62,62,62,30.39,29.88,16,8,29,0.00
2014-1-23,-2.6,-10.7,-17.5,-12.4,-20.2,-26.6,62,62,62,30.62,30.09,10,5,17,0.00
2014-1-24,31.5,21.8,-2.4,28.3,12.6,-12.2,94,68,43,30.09,29.41,19,8,34,0.00
2014-1-25,19.9,5.3,0.5,1.0,-14.7,-19.2,44,38,37,29.85,29.53,20,9,34,0.00
2014-1-26,16.5,4.9,-7.8,7.9,-12.2,-21.5,70,45,38,29.97,29.32,20,9,34,0.00
2014-1-27,-6.9,-12.7,-18.2,-20.7,-26.1,-31.3,50,50,50,30.30,30.00,14,8,26,0.00
2014-1-28,-0.2,-10.9,-24.7,-13.0,-23.4,-37.3,60,53,50,30.30,30.00,12,6,19,0.00
2014-1-29,24.3,7.7,-13.4,14.5,-2.8,-23.3,73,62,55,30.03,29.56,8,4,14,0.00
2014-1-30,22.3,12.5,-5.6,17.5,4.2,-17.0,91,70,56,30.00,29.53,14,7,21,0.00
2014-1-31,9.0,-5.6,-19.8,-3.2,-16.9,-30.4,57,57,57,30.12,29.97,6,3,12,0.00
2014-2-1,21.2,8.4,-6.9,10.6,-2.1,-18.1,68,62,57,30.18,29.88,9,4,17,0.00
2014-2-2,12.9,-1.3,-15.5,3.7,-9.9,-23.6,66,66,66,30.24,30.15,6,3,12,0.00
2014-2-3,17.8,2.5,-12.8,7.0,-7.2,-21.0,69,63,59,30.30,30.15,7,2,14,0.00
2014-2-4,9.7,0.3,-11.9,-1.4,-10.4,-21.9,60,60,60,30.44,30.33,8,4,14,0.00
2014-2-5,7.5,0.5,-4.7,-3.5,-10.1,-15.1,60,60,60,30.48,30.42,10,6,16,0.00
2014-2-6,4.8,-4.0,-12.5,-6.0,-14.4,-22.4,60,60,60,30.39,30.15,13,6,27,0.00
2014-2-7,11.1,-0.5,-7.8,-0.1,-11.1,-18.0,60,60,60,30.15,30.09,10,4,17,0.00
2014-2-8,20.3,1.2,-17.9,9.3,-8.9,-27.6,65,62,60,30.12,30.06,5,1,7,0.00
2014-2-9,7.0,0.8,-6.0,-2.6,-8.5,-15.0,64,64,64,30.33,30.12,12,6,18,0.00
2014-2-10,6.1,-6.5,-15.9,-3.5,-15.5,-24.5,64,64,64,30.44,30.33,7,4,12,0.00
2014-2-11,14.5,-1.6,-23.8,3.9,-11.8,-32.1,64,61,57,30.42,30.03,10,4,19,0.00
2014-2-12,25.7,18.2,11.1,16.6,8.9,-1.2,86,67,57,30.09,29.80,6,2,12,0.00
2014-2-13,27.9,19.4,10.0,25.0,14.1,2.5,92,80,64,29.77,29.41,16,8,27,0.00
2014-2-14,16.7,7.3,1.4,6.1,-2.0,-9.1,71,65,57,30.00,29.71,10,5,17,0.00
2014-2-15,21.2,9.4,-6.7,13.6,0.6,-17.6,84,67,58,30.03,29.80,7,3,14,0.00
2014-2-16,23.0,12.9,-6.3,12.2,5.6,-10.6,83,73,60,30.21,29.97,8,4,17,0.00
2014-2-17,34.7,23.6,11.8,26.3,17.9,8.7,92,79,69,30.00,29.68,11,5,19,0.00
2014-2-18,43.3,28.6,12.6,30.6,22.3,10.4,98,79,59,29.74,29.53,8,3,12,0.00
2014-2-19,44.1,29.3,10.4,31.7,23.8,7.6,94,81,61,29.80,29.68,7,4,12,0.00
2014-2-20,39.4,32.9,20.1,36.2,30.8,20.1,100,92,78,29.71,29.26,10,4,17,0.00
2014-2-21,20.1,11.9,8.1,20.1,6.8,-0.3,100,80,67,29.71,29.26,11,8,20,0.00
2014-2-22,14.9,7.9,2.1,5.2,-1.0,-6.0,68,66,64,30.06,29.71,13,8,24,0.00
2014-2-23,17.6,8.3,1.2,6.6,-1.8,-8.1,64,63,60,30.21,30.06,16,9,29,0.00
2014-2-24,14.5,5.6,-3.8,3.0,-5.3,-13.6,62,60,57,30.27,30.21,10,7,17,0.00
2014-2-25,7.7,-1.0,-8.9,-4.4,-12.6,-20.0,57,57,57,30.27,30.21,12,8,22,0.00
2014-2-26,20.1,1.6,-14.8,7.7,-10.0,-25.6,61,57,56,30.27,29.59,20,10,37,0.00
2014-2-27,-0.2,-11.1,-22.5,-11.9,-22.2,-32.9,57,57,57,30.18,29.91,15,5,26,0.00
2014-2-28,19.6,2.6,-21.6,6.4,-9.3,-32.1,58,57,54,30.15,29.88,10,4,16,0.00
2014-3-1,5.5,-1.9,-9.6,-6.1,-13.1,-20.4,58,58,58,30.48,30.15,12,8,18,0.00
2014-3-2,4.6,-5.6,-15.9,-6.9,-16.6,-26.3,58,58,58,30.50,30.42,10,6,17,0.00
2014-3-3,15.3,0.2,-20.7,1.6,-11.6,-30.9,58,57,54,30.50,30.21,5,2,9,0.00
2014-3-4,25.0,12.8,6.8,11.3,0.3,-6.0,69,57,54,30.30,30.15,6,2,14,0.00
2014-3-5,26.4,13.6,3.7,14.0,1.7,-7.8,65,59,56,30.44,30.27,7,3,12,0.00
2014-3-6,34.7,21.4,4.5,24.0,12.4,-7.1,84,68,58,30.30,29.83,12,6,25,0.00
2014-3-7,35.1,28.5,23.0,33.0,24.3,15.3,99,84,70,30.18,29.77,14,6,25,0.00
2014-3-8,29.5,19.8,8.8,16.1,10.8,3.6,84,68,53,30.30,30.12,8,4,14,0.00
2014-3-9,48.2,32.3,13.8,35.0,25.2,9.1,89,76,60,30.12,29.65,8,4,17,0.00
2014-3-10,53.4,42.4,33.6,39.0,35.4,32.3,100,78,57,29.71,29.56,10,6,19,0.00
2014-3-11,45.0,39.1,30.9,32.8,27.2,18.4,80,63,48,30.00,29.68,15,6,28,0.00
2014-3-12,30.7,22.8,15.4,18.9,10.8,5.8,71,60,53,30.15,30.00,10,5,22,0.00
2014-3-13,52.0,33.9,15.3,37.7,25.3,4.6,93,71,58,30.00,29.50,7,3,12,0.00
2014-3-14,45.0,37.0,25.0,38.2,29.3,14.5,97,74,59,29.94,29.47,17,8,30,0.00
2014-3-15,31.6,23.5,16.5,16.2,11.9,3.6,77,61,48,30.39,29.94,9,6,16,0.00
2014-3-16,29.5,17.0,5.0,13.6,4.3,-6.2,64,57,51,30.48,30.00,6,3,12,0.00
2014-3-17,36.0,27.5,20.8,27.1,19.5,10.6,81,72,64,29.97,29.62,9,6,20,0.00
2014-3-18,36.5,30.4,26.4,31.2,26.7,21.2,100,87,71,29.83,29.68,8,5,14,0.00
2014-3-19,39.4,32.1,26.2,27.9,25.5,19.3,100,78,57,29.94,29.80,12,7,21,0.00
2014-3-20,48.4,32.6,15.8,34.9,25.8,11.8,95,77,57,30.00,29.88,5,2,10,0.00
2014-3-21,49.5,32.6,20.5,39.8,28.6,12.9,98,85,64,30.12,29.71,20,8,34,0.00
2014-3-22,20.8,12.9,5.2,12.2,2.5,-2.8,71,63,55,30.44,30.12,16,10,30,0.00
2014-3-23,26.1,13.1,0.3,12.9,1.0,-11.0,65,58,54,30.48,30.30,10,4,19,0.00
2014-3-24,34.7,20.0,1.6,24.1,8.5,-8.8,83,61,48,30.33,30.06,14,5,24,0.00
2014-3-25,24.4,14.6,6.4,9.7,1.8,-5.6,61,56,52,30.24,30.09,14,8,23,0.00
2014-3-26,39.4,22.7,1.8,26.4,11.0,-9.3,76,60,54,30.12,29.59,11,5,20,0.00
2014-3-27,39.6,36.0,30.6,39.6,34.5,26.6,100,95,66,29.74,29.50,10,5,25,0.00
2014-3-28,41.0,31.0,23.2,30.6,20.3,11.4,100,66,44,30.21,29.77,9,5,16,0.00
2014-3-29,45.9,31.0,16.3,27.3,19.3,10.4,80,63,48,30.27,30.06,6,2,11,0.00
2014-3-30,56.7,43.9,30.2,41.1,34.9,23.4,86,71,56,30.03,29.80,8,4,19,0.00
2014-3-31,51.1,42.5,35.8,42.4,38.2,33.4,100,85,70,29.80,29.35,9,5,16,0.00
2014-4-1,37.6,28.3,20.1,35.6,21.4,13.4,100,76,62,30.06,29.38,16,9,33,0.00
2014-4-2,46.6,31.3,15.3,29.3,20.4,11.5,86,66,50,30.18,30.06,6,3,11,0.00
2014-4-3,37.0,33.9,27.9,33.8,29.3,22.6,100,84,56,30.06,29.80,9,5,19,0.00
2014-4-4,42.8,33.5,25.7,30.2,26.7,20.0,100,78,55,29.97,29.71,16,9,28,0.18
2014-4-5,50.4,35.9,17.1,36.2,29.2,15.4,96,78,57,30.06,29.91,8,4,18,0.00
2014-4-6,57.4,44.2,34.7,42.7,36.1,31.2,89,74,57,29.91,29.77,6,2,12,0.00
2014-4-7,55.9,43.5,30.2,42.2,35.3,27.5,100,75,51,29.80,29.74,12,5,22,0.00
2014-4-8,49.8,40.2,29.5,35.3,28.8,21.1,84,64,48,29.94,29.77,13,7,22,0.00
2014-4-9,67.1,51.9,27.7,47.0,37.9,21.7,82,60,46,29.91,29.44,12,6,23,0.00
2014-4-10,60.1,51.5,37.2,47.5,32.0,12.4,65,49,16,29.88,29.47,18,9,32,0.00
2014-4-11,63.5,50.4,36.1,43.8,36.5,24.4,89,60,43,29.94,29.85,10,4,21,0.00
2014-4-12,53.2,47.6,40.5,46.9,41.9,33.1,100,82,57,29.91,29.71,10,6,17,0.19
2014-4-13,43.5,38.9,33.1,40.2,33.7,22.9,100,82,63,29.91,29.74,14,8,28,0.00
2014-4-14,36.9,31.0,24.4,22.9,15.6,4.5,67,54,30,30.06,29.88,17,11,29,0.00
2014-4-15,38.7,27.6,17.4,16.6,10.0,-0.4,64,49,20,30.12,30.00,9,4,17,0.00
2014-4-16,32.7,30.0,27.9,32.7,27.6,12.9,100,92,51,30.03,29.91,10,7,23,0.00
2014-4-17,46.6,35.0,25.7,32.2,28.5,22.4,100,79,56,30.24,29.97,10,6,19,0.15
2014-4-18,55.0,36.3,19.4,38.2,26.9,17.4,96,71,50,30.33,30.18,9,3,12,0.00
2014-4-19,58.1,45.7,37.8,46.6,36.2,27.7,94,70,56,30.18,29.91,12,5,22,0.00
2014-4-20,69.8,50.8,33.1,47.8,40.6,33.1,100,73,41,30.03,29.91,6,2,9,0.00
2014-4-21,66.7,52.7,38.5,47.2,39.1,28.4,99,62,44,30.03,29.83,18,7,30,0.00
2014-4-22,57.2,44.1,34.0,37.2,31.1,25.8,81,62,41,30.09,30.00,12,5,26,0.00
2014-4-23,57.9,42.1,30.4,40.6,33.8,25.2,100,74,48,30.06,29.91,9,4,16,0.18
2014-4-24,43.7,41.1,39.2,43.7,41.1,39.2,100,100,100,29.91,29.65,9,4,16,0.70
2014-4-25,56.8,44.7,32.5,45.9,39.0,32.3,100,82,57,29.91,29.68,11,5,18,0.00
2014-4-26,60.6,45.5,31.8,41.9,35.8,31.8,100,72,47,30.00,29.85,12,6,19,0.00
2014-4-27,44.1,39.8,36.9,41.9,38.9,36.8,100,96,82,29.94,29.71,16,10,26,1.54
2014-4-28,45.0,42.2,39.7,44.6,41.1,36.5,100,96,81,29.74,29.65,13,9,22,1.35
2014-4-29,39.9,36.9,34.0,37.6,35.7,33.8,100,96,79,29.74,29.68,12,8,29,0.43
2014-4-30,46.2,40.4,35.1,44.1,39.3,35.1,100,96,82,29.74,29.71,11,8,23,0.22
2014-5-1,50.2,43.6,38.3,43.9,40.7,38.3,100,90,74,29.80,29.68,12,8,19,0.06
2014-5-2,60.8,48.9,40.6,50.2,43.4,38.3,98,82,60,29.77,29.56,8,4,15,0.00
2014-5-3,60.1,49.9,39.6,40.7,37.3,31.2,93,64,46,29.91,29.65,15,8,26,0.00
2014-5-4,59.9,47.5,35.8,38.5,33.1,27.7,82,59,44,30.06,29.91,12,4,19,0.00
2014-5-5,68.0,55.8,45.7,46.1,39.8,33.0,80,56,43,29.97,29.88,6,3,16,0.00
2014-5-6,71.2,55.8,39.2,48.5,42.9,37.6,95,65,44,29.97,29.80,11,6,21,0.00
2014-5-7,72.1,59.6,49.8,54.6,46.5,37.7,91,63,53,29.83,29.65,11,7,19,0.00
2014-5-8,65.8,54.8,49.5,61.2,53.9,49.0,100,97,82,29.77,29.50,11,5,23,1.44
2014-5-9,57.4,50.9,42.3,57.4,49.3,42.0,100,94,79,29.77,29.44,14,6,26,0.00
2014-5-10,75.7,56.6,38.8,55.8,47.1,38.6,100,74,43,29.85,29.74,8,4,14,0.00
2014-5-11,79.0,62.7,46.2,61.0,55.0,46.2,100,79,53,29.85,29.74,6,2,10,0.15
2014-5-12,55.4,48.9,42.8,55.0,48.9,42.8,100,100,98,29.83,29.68,8,5,18,0.89
2014-5-13,55.2,48.6,40.6,46.2,41.5,35.3,100,78,56,30.09,29.74,14,8,24,0.05
2014-5-14,59.9,48.4,37.0,41.4,36.4,29.6,97,66,45,30.18,30.09,9,5,18,0.00
2014-5-15,50.7,44.0,36.9,37.0,34.6,29.9,86,70,56,30.15,30.06,11,6,20,0.00
2014-5-16,56.8,48.2,39.9,37.1,34.0,30.1,87,60,40,30.06,29.97,12,5,24,0.00
2014-5-17,69.3,55.8,41.0,42.1,36.6,30.2,69,51,33,29.97,29.91,11,5,21,0.00
2014-5-18,77.9,62.1,48.7,51.6,43.0,34.6,61,50,37,30.00,29.91,11,4,22,0.00
2014-5-19,58.1,54.5,51.4,56.5,49.2,40.0,100,84,58,29.94,29.74,10,5,23,0.93
2014-5-20,80.1,62.5,51.1,66.0,57.2,51.1,100,85,51,29.85,29.71,6,2,10,0.00
2014-5-21,66.6,60.0,48.4,62.2,50.3,43.9,98,71,54,30.06,29.80,12,6,21,0.00
2014-5-22,73.9,57.5,43.3,53.0,48.0,43.3,100,74,47,30.15,30.06,8,3,17,0.00
2014-5-23,79.7,62.3,43.5,56.3,50.9,43.5,100,71,43,30.21,30.06,5,2,11,0.00
2014-5-24,85.6,68.4,50.5,62.3,55.4,48.6,97,67,41,30.12,30.00,6,2,14,0.00
2014-5-25,87.1,69.5,51.6,65.4,58.3,47.6,94,70,46,30.03,29.85,7,2,14,0.00
2014-5-26,90.1,71.1,61.0,74.1,67.4,61.0,100,90,53,29.88,29.83,8,1,17,0.00
2014-5-27,67.6,63.2,57.0,66.9,62.7,53.8,100,98,88,29.97,29.83,7,2,14,1.11
2014-5-28,83.3,65.6,49.6,65.4,55.4,46.1,96,72,48,30.06,29.94,5,2,11,0.00
2014-5-29,86.2,68.5,50.2,63.4,56.6,49.1,100,69,44,30.09,30.00,4,1,9,0.00
2014-5-30,88.9,72.5,55.2,72.4,62.8,55.2,100,75,46,30.09,29.97,4,1,12,0.00
2014-5-31,88.3,70.0,62.1,74.8,66.2,58.9,100,89,58,30.03,29.85,13,2,22,1.93
2014-6-1,80.8,70.5,64.8,75.1,69.1,64.8,100,96,78,29.88,29.68,6,2,14,0.26
2014-6-2,80.6,69.4,60.3,72.7,64.6,54.6,100,86,59,29.74,29.59,15,6,33,0.14
2014-6-3,77.9,66.2,55.8,60.0,56.8,52.8,97,74,50,29.88,29.74,9,5,19,0.00
2014-6-4,84.0,68.5,54.5,65.8,58.5,54.5,100,74,46,29.85,29.80,3,1,9,0.00
2014-6-5,80.8,66.9,56.1,67.7,61.6,55.6,100,85,54,29.85,29.80,12,2,26,0.00
2014-6-6,85.8,68.0,56.3,71.8,63.6,56.3,100,88,49,29.94,29.83,8,1,17,1.87
2014-6-7,70.7,58.1,51.3,61.2,56.2,51.3,100,94,64,30.00,29.88,10,3,20,0.59
2014-6-8,74.1,60.6,45.1,57.9,51.2,45.1,100,75,45,30.09,30.00,5,1,10,0.00
2014-6-9,75.4,63.0,53.1,59.5,55.6,53.1,100,79,51,30.03,29.91,4,0,9,0.00
2014-6-10,82.2,65.7,48.9,65.4,56.7,48.9,100,77,48,29.94,29.83,4,1,10,0.00
2014-6-11,82.4,68.0,51.6,65.9,60.5,51.6,100,80,53,29.83,29.62,8,1,20,0.14
2014-6-12,64.8,59.9,48.7,64.8,54.0,48.0,100,82,60,29.91,29.59,14,7,25,0.04
2014-6-13,76.5,60.8,44.2,59.6,52.1,44.2,100,77,46,30.00,29.85,5,1,12,0.00
2014-6-14,70.7,61.5,56.5,63.3,58.7,53.5,100,91,71,29.94,29.71,7,2,17,0.68
2014-6-15,77.7,65.0,57.9,69.1,60.2,57.9,100,86,57,29.80,29.41,11,6,29,0.46
2014-6-16,87.4,69.7,56.1,70.9,63.6,56.1,100,83,51,29.85,29.56,10,3,29,0.00
2014-6-17,86.2,72.2,58.1,74.4,67.4,58.1,100,86,63,29.83,29.68,4,1,9,0.00
2014-6-18,78.6,70.7,63.9,73.4,68.1,61.5,100,92,80,29.94,29.77,6,3,14,0.03
2014-6-19,77.4,68.1,63.0,73.7,67.4,61.5,100,98,86,30.00,29.83,14,4,22,1.23
2014-6-20,86.2,74.3,62.6,74.7,69.0,62.6,100,86,57,29.91,29.80,4,1,11,0.00
2014-6-21,85.5,68.0,55.8,68.2,61.8,55.8,100,84,50,29.91,29.77,6,2,9,0.00
2014-6-22,80.8,67.8,58.6,73.7,66.7,58.6,100,97,71,29.85,29.77,11,1,19,0.78
2014-6-23,82.2,70.9,60.4,74.2,65.9,60.4,100,86,57,29.83,29.77,7,2,16,0.00
2014-6-24,86.2,68.8,56.3,72.1,64.5,56.3,100,88,52,29.94,29.83,8,2,16,0.09
2014-6-25,66.9,58.6,50.4,63.4,57.2,50.4,100,95,84,30.03,29.94,5,2,11,0.00
2014-6-26,83.1,67.5,52.0,74.0,64.5,52.0,100,91,72,30.00,29.85,5,2,11,0.00
2014-6-27,86.0,76.0,66.6,77.6,72.3,66.6,100,89,72,29.85,29.71,6,3,16,0.00
2014-6-28,88.7,74.8,66.6,80.5,72.7,66.6,100,94,74,29.74,29.62,11,3,24,2.06
2014-6-29,86.5,74.2,63.5,72.9,65.4,55.9,100,77,45,29.68,29.59,10,4,27,0.00
2014-6-30,83.7,73.2,64.0,66.3,60.6,55.1,88,66,50,29.62,29.44,10,5,21,0.00
2014-7-1,76.1,66.5,58.3,69.9,62.2,54.6,100,86,66,29.77,29.44,12,6,26,0.04
2014-7-2,75.7,63.9,55.2,55.0,52.8,49.5,93,70,47,30.03,29.77,9,6,19,0.00
2014-7-3,80.1,65.6,51.8,61.4,55.7,51.8,100,74,45,30.15,30.03,7,2,14,0.00
2014-7-4,81.1,67.0,50.7,66.1,58.4,50.7,100,77,50,30.21,30.03,5,2,12,0.00
2014-7-5,87.3,75.3,62.2,75.2,67.5,58.9,99,78,62,30.06,29.80,9,3,19,0.00
2014-7-6,89.8,77.6,68.2,80.3,70.9,63.7,100,82,55,29.83,29.62,11,5,25,0.14
2014-7-7,82.6,70.9,63.5,73.3,67.4,63.5,100,90,63,29.71,29.59,8,3,20,0.18
2014-7-8,76.3,67.5,60.3,64.4,59.9,54.4,100,79,53,29.85,29.59,12,6,22,0.00
2014-7-9,81.1,67.1,55.2,62.2,58.7,55.2,100,77,49,29.97,29.85,7,2,16,0.00
2014-7-10,86.0,70.9,55.8,72.9,65.0,55.8,100,84,57,30.00,29.91,4,1,9,0.00
2014-7-11,81.7,73.0,65.5,77.2,70.4,65.1,100,92,79,29.94,29.88,6,2,14,0.42
2014-7-12,80.4,71.7,64.8,75.8,69.0,64.8,100,92,74,29.94,29.85,6,2,12,0.00
2014-7-13,77.2,67.2,57.9,65.3,57.3,51.2,100,74,45,29.91,29.83,10,4,27,0.00
2014-7-14,63.9,59.7,54.7,61.7,55.6,50.7,100,87,69,29.97,29.83,13,6,28,0.00
2014-7-15,72.5,64.5,55.2,58.4,55.4,52.7,100,74,55,30.03,29.94,10,6,18,0.00
2014-7-16,77.2,64.2,50.5,63.6,55.8,50.5,100,78,47,30.00,29.94,5,2,10,0.00
2014-7-17,82.4,67.2,51.6,65.7,59.3,51.6,100,79,49,30.00,29.94,4,1,12,0.00
2014-7-18,82.0,69.3,55.9,67.6,62.3,55.9,100,81,54,29.97,29.88,6,2,16,0.00
2014-7-19,82.2,71.6,62.4,71.8,66.8,62.0,100,86,62,29.88,29.83,8,2,17,0.00
2014-7-20,91.8,77.6,65.1,76.5,70.8,65.1,100,82,57,29.83,29.74,7,2,16,0.00
2014-7-21,93.9,81.3,70.2,84.0,77.2,70.0,100,88,71,29.85,29.74,5,2,12,0.00
2014-7-22,82.2,75.7,66.9,79.3,68.4,60.1,100,80,56,30.09,29.71,12,6,25,0.00
2014-7-23,81.9,69.1,55.0,65.6,60.1,55.0,100,76,51,30.18,30.09,7,2,11,0.00
2014-7-24,84.6,69.6,54.1,67.8,62.3,54.1,100,80,49,30.12,29.85,4,1,11,0.00
2014-7-25,81.0,71.7,64.8,74.9,70.2,64.4,100,95,79,29.88,29.71,7,2,16,0.22
2014-7-26,87.1,78.5,66.9,72.1,68.2,64.5,100,74,51,29.80,29.71,6,3,18,0.00
2014-7-27,85.6,85.6,85.6,67.1,67.1,67.1,54,54,54,29.71,29.71,4,4,11,0.00
2014-7-28,85.6,85.6,85.6,67.1,67.1,67.1,54,54,54,29.71,29.71,4,4,11,0.00
2014-7-29,85.6,85.6,85.6,67.1,67.1,67.1,54,54,54,29.71,29.71,4,4,11,0.00
2014-7-30,85.6,81.9,66.2,67.1,66.0,61.9,88,60,54,29.97,29.71,7,4,12,0.00
2014-7-31,83.8,71.8,60.1,67.0,63.4,59.8,100,77,53,29.97,29.91,7,3,15,0.00
2014-8-1,86.9,72.7,60.1,70.6,64.8,60.1,100,80,49,30.00,29.94,4,1,9,0.00
2014-8-2,88.0,71.9,57.6,74.1,64.9,57.6,100,82,50,30.06,30.00,6,1,14,0.00
2014-8-3,84.9,69.8,59.0,75.7,67.0,59.0,100,92,61,30.06,29.97,11,1,26,0.23
2014-8-4,81.7,70.2,63.3,73.0,65.8,61.7,100,87,63,30.03,29.97,8,2,14,0.00
2014-8-5,81.7,67.8,56.1,70.2,62.5,56.1,100,85,55,30.09,30.03,5,2,10,0.00
2014-8-6,84.7,69.5,55.6,72.3,63.4,55.6,100,83,55,30.06,29.97,4,1,12,0.00
2014-8-7,86.9,69.6,56.3,71.1,63.4,56.3,100,84,53,30.06,29.94,4,1,9,0.00
2014-8-8,88.2,70.4,57.0,71.4,62.5,57.0,100,80,48,30.06,29.97,4,1,11,0.00
2014-8-9,87.3,71.0,59.0,70.8,64.2,59.0,100,82,49,30.06,30.00,4,1,11,0.00
2014-8-10,87.8,72.5,63.3,72.2,67.9,63.3,100,87,58,30.03,29.91,4,1,10,0.68
2014-8-11,77.4,67.1,59.5,68.9,64.7,59.5,100,93,60,30.03,29.88,10,4,26,0.83
2014-8-12,77.4,66.3,55.2,63.5,59.3,55.2,100,81,52,30.00,29.91,10,4,17,0.00
2014-8-13,78.4,68.8,57.2,68.2,62.1,57.2,100,82,52,30.06,29.94,6,2,13,0.00
2014-8-14,78.6,64.5,50.7,63.0,57.8,50.7,100,82,56,30.12,29.94,4,1,10,0.00
2014-8-15,88.3,71.7,57.2,75.1,66.9,57.2,100,87,62,29.97,29.80,4,1,10,0.00
2014-8-16,89.1,74.1,63.0,78.0,71.2,63.0,100,92,67,29.88,29.77,7,1,16,0.55
2014-8-17,72.3,66.2,62.2,72.0,66.2,62.2,100,100,99,29.94,29.80,4,1,9,0.41
2014-8-18,86.0,72.4,64.4,78.6,70.0,64.4,100,93,63,29.83,29.59,9,1,20,0.45
2014-8-19,79.5,69.4,61.5,71.4,66.6,61.5,100,92,72,29.74,29.62,8,3,15,0.00
2014-8-20,83.3,69.8,60.3,73.0,67.0,60.3,100,92,68,29.85,29.74,4,1,8,0.00
2014-8-21,77.0,71.0,64.8,76.6,71.0,64.8,100,100,97,29.83,29.74,5,2,9,0.51
2014-8-22,78.4,70.7,64.8,74.6,70.0,64.8,100,98,87,29.97,29.80,7,3,11,0.00
2014-8-23,82.4,72.1,64.9,78.1,71.4,64.9,100,98,85,29.97,29.85,3,1,8,0.00
2014-8-24,85.6,76.9,70.7,81.7,75.9,70.7,100,97,82,29.85,29.74,6,3,19,0.36
2014-8-25,77.9,70.0,62.4,72.1,64.4,59.7,100,84,59,30.00,29.80,8,3,16,0.00
2014-8-26,73.4,62.7,54.1,61.7,56.7,51.0,100,82,58,30.15,30.00,7,3,13,0.00
2014-8-27,74.8,63.9,55.9,63.1,59.7,55.9,100,88,60,30.18,30.06,4,1,8,0.00
2014-8-28,78.1,66.2,55.8,69.2,63.9,55.8,100,93,73,30.09,29.85,4,2,12,0.00
2014-8-29,72.0,68.0,64.0,72.0,68.0,64.0,100,100,100,29.85,29.68,5,1,15,0.78
2014-8-30,76.6,68.3,61.2,70.2,66.4,61.2,100,94,75,29.83,29.71,5,2,10,0.00
2014-8-31,84.2,70.4,58.1,78.7,68.1,58.1,100,93,77,29.85,29.56,6,2,16,0.18
2014-9-1,75.6,67.7,59.9,69.3,63.2,57.4,100,88,54,29.77,29.56,9,3,21,0.14
2014-9-2,78.4,65.3,54.7,64.8,59.3,54.7,100,83,52,29.83,29.74,6,2,14,0.00
2014-9-3,69.1,62.5,55.6,69.1,62.3,55.6,100,99,90,29.83,29.62,16,2,36,1.59
2014-9-4,83.3,70.7,61.5,81.7,70.3,61.5,100,99,90,29.80,29.56,15,3,26,0.04
2014-9-5,67.5,60.6,52.3,63.0,55.1,52.2,100,84,61,30.09,29.80,9,4,17,0.00
2014-9-6,74.8,61.0,50.9,61.4,55.9,50.9,100,86,55,30.12,30.03,8,2,14,0.00
2014-9-7,78.1,63.5,50.9,62.5,57.1,50.9,100,82,55,30.06,29.94,6,2,14,0.00
2014-9-8,76.3,63.3,53.4,66.4,60.2,53.4,100,90,68,29.94,29.77,5,2,14,0.00
2014-9-9,75.0,66.3,56.8,72.6,65.8,56.8,100,98,89,29.83,29.68,8,1,17,0.59
2014-9-10,63.7,51.4,45.9,63.7,50.3,43.7,100,96,84,30.06,29.68,12,7,30,0.54
2014-9-11,57.6,49.3,40.1,47.6,42.5,39.1,100,79,56,30.30,30.03,7,3,16,0.00
2014-9-12,53.8,46.2,39.2,46.3,40.6,37.4,100,83,57,30.36,30.24,8,2,14,0.00
2014-9-13,63.3,48.1,32.7,51.1,41.5,32.7,100,81,50,30.27,30.06,6,2,14,0.00
2014-9-14,64.4,54.9,48.6,51.2,47.2,44.7,96,77,52,30.06,30.00,10,4,22,0.00
2014-9-15,63.0,51.0,41.2,51.1,44.5,40.6,100,81,50,30.15,30.06,9,3,17,0.00
2014-9-16,69.4,51.9,37.4,52.1,45.7,37.4,100,83,52,30.15,29.94,6,2,14,0.00
2014-9-17,72.7,57.1,44.1,60.6,52.6,44.1,100,87,57,30.00,29.88,5,1,14,0.00
2014-9-18,69.8,55.9,45.3,63.2,54.4,45.3,100,95,77,30.06,29.91,4,2,8,0.00
2014-9-19,72.3,62.0,55.0,67.6,60.9,55.0,100,96,78,29.91,29.59,7,2,16,0.00
2014-9-20,73.4,64.3,56.5,65.8,61.1,53.7,100,90,63,29.74,29.59,10,5,24,0.28
2014-9-21,64.8,56.4,48.7,54.7,51.3,48.7,100,84,58,30.15,29.74,12,7,23,0.10
2014-9-22,72.1,56.1,42.1,59.0,51.9,42.1,100,88,58,30.18,30.06,6,2,14,0.00
2014-9-23,74.8,58.2,44.4,63.8,54.0,44.4,100,88,58,30.15,30.06,6,1,16,0.00
2014-9-24,68.0,60.8,57.2,61.5,59.0,57.2,100,94,72,30.12,30.06,6,2,14,0.00
2014-9-25,76.6,65.0,56.3,69.7,63.0,56.3,100,94,77,30.15,30.09,4,1,10,0.00
2014-9-26,79.2,63.8,52.2,66.8,59.0,52.2,100,87,56,30.12,30.03,5,1,12,0.00
2014-9-27,82.0,66.9,56.7,70.9,63.5,56.7,100,90,65,30.09,30.00,5,1,12,0.00
2014-9-28,82.2,67.5,55.9,70.4,62.7,55.9,100,87,53,30.06,29.94,6,2,14,0.00
2014-9-29,64.8,53.6,44.6,64.8,51.0,43.5,100,91,71,30.09,29.97,8,4,19,0.22
2014-9-30,59.7,49.6,43.3,50.7,46.6,42.7,100,90,71,30.06,29.83,6,4,14,0.00
2014-10-1,56.8,52.5,48.9,56.8,52.1,48.1,100,99,92,29.83,29.71,5,2,14,0.45
2014-10-2,60.6,56.2,52.3,60.4,56.1,52.3,100,100,98,29.80,29.68,7,1,13,0.37
2014-10-3,52.3,44.2,36.3,52.3,41.4,33.7,100,90,69,29.74,29.62,15,9,32,0.18
2014-10-4,50.2,42.7,36.9,41.2,36.3,31.2,100,80,58,29.71,29.62,15,8,27,0.10
2014-10-5,51.4,41.8,34.0,37.6,34.6,31.7,95,77,58,29.62,29.47,10,4,20,0.00
2014-10-6,59.7,46.0,34.9,48.5,41.1,34.4,100,85,58,29.47,29.32,9,4,20,0.00
2014-10-7,58.8,45.9,35.1,46.6,38.8,33.1,100,79,50,29.77,29.38,14,4,30,0.00
2014-10-8,54.0,43.7,34.0,37.4,34.2,29.8,97,71,49,30.00,29.77,11,5,24,0.00
2014-10-9,52.5,40.7,29.8,40.4,34.5,28.5,99,80,60,30.15,30.00,8,3,16,0.00
2014-10-10,53.2,41.2,31.6,39.3,34.4,30.4,95,78,55,30.18,30.12,7,2,12,0.00
2014-10-11,59.2,40.0,25.7,44.6,33.6,25.0,100,81,52,30.18,29.91,5,1,12,0.00
2014-10-12,63.9,48.1,34.2,48.8,40.3,32.5,100,77,47,29.91,29.71,8,3,19,0.00
2014-10-13,56.5,52.7,50.5,55.5,52.2,48.8,100,98,86,29.77,29.71,8,2,16,0.00
2014-10-14,64.0,52.9,45.5,52.1,46.0,38.8,100,80,48,29.94,29.74,12,6,26,0.00
2014-10-15,64.4,47.3,34.0,47.8,40.6,34.0,100,80,49,29.97,29.80,6,2,12,0.00
2014-10-16,72.1,50.9,31.1,53.2,43.3,31.1,100,79,50,29.80,29.47,10,3,17,0.00
2014-10-17,56.3,52.9,48.6,53.2,47.7,42.0,98,83,68,29.97,29.50,14,8,27,0.00
2014-10-18,53.8,44.6,34.7,42.3,36.8,32.8,96,75,57,30.15,29.97,9,3,17,0.00
2014-10-19,66.6,51.0,33.3,51.2,44.1,32.0,100,79,56,30.03,29.71,8,4,15,0.00
2014-10-20,59.2,50.4,37.8,48.8,44.1,35.9,100,80,60,30.03,29.80,10,4,19,0.00
2014-10-21,58.5,42.6,30.6,45.9,38.2,30.3,100,86,60,30.15,30.03,7,2,13,0.00
2014-10-22,60.3,48.5,38.5,47.2,42.5,37.9,100,81,60,30.12,29.94,10,5,19,0.00
2014-10-23,66.7,54.5,44.8,59.7,51.3,44.8,100,90,64,29.94,29.85,5,2,12,0.00
2014-10-24,68.0,53.1,43.3,60.0,51.1,43.3,100,94,67,29.91,29.74,7,2,12,0.00
2014-10-25,63.5,54.3,42.8,47.7,37.0,29.0,66,53,35,29.97,29.80,12,7,24,0.00
2014-10-26,64.4,46.8,29.5,42.7,34.1,26.4,93,64,43,29.97,29.59,8,3,14,0.00
2014-10-27,65.5,51.5,39.0,50.4,41.2,32.2,96,69,51,29.65,29.50,12,4,19,0.00
2014-10-28,48.0,42.8,38.1,45.3,39.2,33.7,100,88,71,29.88,29.62,15,9,32,0.00
2014-10-29,44.2,40.1,35.8,36.8,34.9,33.2,98,82,70,30.06,29.88,10,5,19,0.00
2014-10-30,45.1,38.1,30.9,38.4,32.1,17.0,99,81,53,30.03,29.18,17,6,32,0.00
2014-10-31,39.2,30.2,20.1,23.5,18.8,13.9,78,63,52,29.62,29.41,11,5,20,0.00
2014-11-1,44.8,29.8,16.7,30.5,21.4,13.2,92,72,52,29.53,29.24,8,3,15,0.00
2014-11-2,57.6,42.1,28.4,37.8,29.4,19.0,74,61,47,29.26,28.97,10,4,19,0.00
2014-11-3,55.0,46.6,36.9,47.9,40.0,28.1,95,78,60,28.97,28.85,10,3,17,0.00
2014-11-4,52.5,43.9,35.1,43.0,33.7,25.1,92,68,57,29.06,28.88,15,9,30,0.00
2014-11-5,40.5,36.3,32.2,40.5,34.1,25.2,100,92,68,29.97,29.00,8,4,14,0.36
2014-11-6,44.1,35.5,27.1,34.3,31.9,26.9,100,88,61,30.21,29.97,10,5,19,0.00
2014-11-7,43.3,35.4,25.7,43.3,34.2,25.7,100,95,82,30.15,29.62,17,4,30,0.04
2014-11-8,41.2,39.0,35.6,36.2,29.2,23.6,87,68,55,29.94,29.74,17,10,31,0.00
2014-11-9,37.6,34.1,27.3,34.9,25.1,13.7,94,71,50,29.80,29.65,10,4,17,0.00
2014-11-10,28.9,26.9,24.8,28.9,23.7,17.0,100,89,62,29.88,29.65,14,8,30,0.00
2014-11-11,24.8,22.4,18.7,22.3,19.4,10.4,98,89,65,30.18,29.88,13,8,26,0.00
2014-11-12,29.1,20.3,11.3,19.5,14.4,6.6,92,78,66,30.21,30.15,10,6,17,0.00
2014-11-13,28.4,21.5,16.0,19.1,15.0,10.0,99,77,63,30.27,30.21,11,6,16,0.00
2014-11-14,22.1,12.3,0.5,14.1,5.0,-8.2,87,73,61,30.30,30.21,8,4,13,0.00
2014-11-15,26.1,11.0,-7.6,18.3,4.4,-16.0,91,75,66,30.24,30.03,4,1,7,0.00
2014-11-16,18.9,12.4,6.6,16.7,6.6,-2.7,95,78,63,30.03,29.77,11,4,26,0.00
2014-11-17,17.2,11.3,5.7,6.6,1.5,-3.5,67,64,60,29.88,29.80,13,9,27,0.00
2014-11-18,18.5,12.6,4.6,12.0,3.5,-4.9,80,67,59,29.94,29.71,11,6,17,0.00
2014-11-19,26.1,20.3,14.4,16.3,13.0,6.2,92,74,59,29.88,29.65,16,7,30,0.00
2014-11-20,17.1,8.7,-4.0,7.1,-1.4,-15.6,74,63,56,30.21,29.85,11,6,21,0.00
2014-11-21,30.6,15.1,-5.8,25.6,6.1,-17.3,89,67,57,30.21,29.80,10,4,20,0.00
2014-11-22,39.9,33.2,0.0,37.4,33.9,25.6,100,93,89,29.80,29.47,7,4,12,0.00
2014-11-23,45.5,40.2,35.1,45.5,39.9,34.9,100,99,87,29.47,29.29,8,3,14,0.00
2014-11-24,34.9,25.2,15.3,34.9,21.7,10.2,100,87,72,29.85,29.26,16,11,29,0.04
2014-11-25,24.1,13.4,9.5,19.1,8.9,5.4,83,82,66,30.24,29.85,6,2,10,0.00
2014-11-26,27.0,22.0,7.3,20.7,14.8,-3.7,86,74,60,30.36,30.03,10,5,19,0.00
2014-11-27,11.5,5.3,-2.7,0.1,-5.6,-13.2,60,60,60,30.48,30.24,8,4,14,0.00
2014-11-28,23.2,16.7,9.1,16.0,8.8,-2.0,87,71,60,30.24,29.71,6,4,11,0.00
2014-11-29,36.7,27.7,16.0,32.7,25.6,13.1,100,92,82,29.71,29.41,12,3,19,0.00
2014-11-30,26.1,12.5,3.9,21.0,2.0,-8.0,81,62,57,30.39,29.65,14,9,23,0.00
2014-12-1,7.3,1.1,-3.8,-4.9,-10.7,-15.3,57,57,57,30.68,30.36,16,4,26,0.00
2014-12-2,24.1,15.5,1.9,13.9,6.1,-9.8,86,66,57,30.36,29.91,9,5,21,0.00
2014-12-3,21.4,14.2,6.1,10.4,5.4,-4.2,82,68,57,30.30,29.94,11,5,18,0.00
2014-12-4,32.4,22.5,6.1,20.2,12.3,-4.2,79,65,54,30.30,30.06,7,3,15,0.00
2014-12-5,37.2,29.4,20.1,32.3,25.3,18.8,100,85,68,30.39,30.06,6,2,11,0.00
2014-12-6,28.4,21.3,11.3,22.5,16.3,8.5,96,81,67,30.62,30.39,5,2,8,0.00
2014-12-7,36.7,31.1,24.4,33.6,26.5,17.6,100,83,74,30.50,29.97,10,6,24,0.00
2014-12-8,34.9,29.2,21.0,34.9,26.2,15.3,100,89,76,30.30,29.91,13,7,22,0.04
2014-12-9,24.8,22.2,18.1,24.2,20.3,14.2,99,92,83,30.48,30.30,7,3,11,0.00
2014-12-10,29.1,25.9,23.9,28.2,25.4,23.9,100,98,92,30.39,30.24,5,3,12,0.00
2014-12-11,32.2,29.3,26.6,32.0,29.1,26.0,100,99,97,30.24,30.15,6,3,11,0.00
2014-12-12,37.0,34.3,31.6,36.8,34.2,31.6,100,100,97,30.18,30.03,7,4,12,0.00
2014-12-13,43.7,39.5,0.0,43.7,39.6,35.2,100,100,100,30.06,29.88,5,2,12,0.00
2014-12-14,46.8,44.8,41.5,46.8,44.8,41.5,100,100,100,29.91,29.77,3,2,8,0.00
2014-12-15,47.7,41.1,29.3,47.7,41.1,29.3,100,100,100,29.85,29.71,12,5,25,0.37
2014-12-16,29.3,21.7,14.5,29.1,18.2,10.9,100,86,78,30.21,29.85,14,9,27,0.00
2014-12-17,21.2,15.0,10.0,12.5,9.4,4.9,88,78,66,30.30,30.21,7,3,12,0.00
2014-12-18,24.6,21.6,14.0,21.8,19.4,8.6,94,91,87,30.30,30.21,4,1,7,0.00
2014-12-19,29.1,26.0,22.5,27.3,23.7,20.5,95,91,85,30.24,30.12,6,3,11,0.00
2014-12-20,34.2,31.4,28.6,32.1,30.2,27.3,98,96,91,30.15,30.03,8,4,19,0.00
2014-12-21,36.0,33.8,31.5,36.0,33.7,30.5,100,99,96,30.06,29.71,8,4,14,0.09
2014-12-22,36.9,36.1,35.4,36.9,36.1,35.4,100,100,100,29.71,29.62,7,4,14,0.09
2014-12-23,36.3,35.1,34.5,36.3,35.1,34.5,100,100,100,29.85,29.65,10,6,19,0.00
2014-12-24,37.8,35.1,32.4,36.4,34.3,31.6,100,97,89,29.83,29.56,8,5,14,0.00
2014-12-25,35.8,33.0,31.1,35.3,32.6,31.0,100,99,92,29.88,29.56,7,3,13,0.00
2014-12-26,33.6,31.5,0.0,32.7,30.3,26.2,100,94,83,30.06,29.85,9,4,15,0.00
2014-12-27,27.0,22.7,11.8,26.2,18.1,7.1,100,83,64,30.03,29.94,11,7,18,0.00
2014-12-28,24.1,15.5,5.5,18.4,8.5,-5.2,91,74,61,30.33,30.00,8,2,12,0.00
2014-12-29,8.1,2.0,-3.5,-2.6,-8.3,-13.6,61,61,61,30.59,30.33,8,4,13,0.00
2014-12-30,0.5,-1.9,-9.8,-9.8,-12.1,-19.6,61,61,61,30.65,30.48,10,5,17,0.00
2014-12-31,0.5,0.5,0.5,-9.8,-9.8,-9.8,61,61,61,30.48,29.85,11,6,20,0.00
2015-1-1,31.6,14.8,0.0,23.0,5.5,-9.8,89,66,61,30.09,29.74,9,5,18,0.00
2015-1-2,27.1,20.3,10.6,22.9,11.3,-0.6,85,68,60,30.15,29.94,7,3,14,0.00